Location: Greenhawk Observatory
(37.3417°N, 122.0298°W)
Time: 02:30:15
(UTC-07:00)

Daily predictions for brighter satellites

Satellite Brightness Start Highest point End
(mag) Time Altitude Azimuth Time Altitude Azimuth Time Altitude Azimuth
H-2A R/B 4.2 00:02:49 10° NNE 00:05:06 26° NE 00:05:06 26° NE
Meteor 1-26 Rocket 4.4 00:05:21 10° NNW 00:10:55 62° W 00:11:11 61° WSW
Cosmos 44 3.5 00:11:51 78° N 00:11:51 78° N 00:16:59 10° NNE
Cosmos 1932 4.3 00:10:58 10° NNW 00:17:25 88° WSW 00:17:51 79° SSE
Cosmos 1733 Rocket 4.0 00:24:01 45° NNE 00:24:01 45° NNE 00:27:10 10° N
Meteor 2-10 Rocket 3.7 00:21:15 10° N 00:26:48 82° NE 00:26:48 82° NE
Cosmos 2154 Rocket 4.0 00:29:23 67° E 00:29:27 68° E 00:35:41 10° NNE
Meteor 2-3 Rocket 4.3 00:33:25 46° W 00:33:58 47° WNW 00:39:29 10° N
ATLAS 3B R/B 3.6 00:29:16 10° NW 00:35:10 32° WSW 00:35:10 32° WSW
Cosmos 2263 Rocket 3.1 00:36:38 38° ENE 00:36:38 38° ENE 00:40:45 10° NE
ALOS 2 3.7 00:49:17 43° NNW 00:49:17 43° NNW 00:52:17 10° NNW
CZ-4C R/B 2.9 00:41:59 10° NNW 00:49:12 75° ENE 00:50:45 59° ESE
FALCON 9 R/B 3.5 00:38:47 10° W 00:50:19 43° WSW 00:50:19 43° WSW
Meteor 1-10 Rocket 4.4 00:47:25 10° NNW 00:53:08 72° WNW 00:53:08 72° WNW
USA 238 DEB 3.9 00:46:32 10° NW 00:53:20 56° WSW 00:53:20 56° WSW
USA 238 3.9 00:46:38 10° NW 00:53:27 57° WSW 00:53:27 57° WSW
CZ-2C R/B 3.4 00:50:31 10° NNE 00:54:24 40° ENE 00:54:24 40° ENE
SL-16 R/B 4.2 00:53:23 10° WNW 00:56:17 16° W 00:56:17 16° W
SeaSat 1 3.2 00:59:57 46° WNW 00:59:57 46° WNW 01:03:37 10° NNW
Cosmos 962 Rocket 4.3 01:03:21 83° WNW 01:03:21 83° WNW 01:09:27 10° N
ASTEX 1 4.2 00:58:41 10° N 01:02:39 44° NW 01:02:39 44° NW
Cosmos 2341 Rocket 3.9 01:07:27 76° WSW 01:07:39 77° W 01:14:02 10° N
CZ-4B R/B 4.3 01:11:12 16° NNW 01:11:12 16° NNW 01:12:01 10° NNW
MOS 1-B Rocket 3.8 01:09:26 72° ENE 01:09:26 72° ENE 01:14:53 10° N
SL-8 Rocket 4.1 01:09:52 65° E 01:09:53 65° E 01:16:09 10° NNE
Okean 2 Rocket 4.3 01:13:33 38° NNE 01:13:33 38° NNE 01:16:31 10° NNE
BREEZE-M TANK 4.5 01:06:30 10° WNW 01:12:41 30° N 01:14:27 19° NE
Cosmos 1943 3.4 01:11:49 10° NNW 01:16:46 67° NW 01:16:46 67° NW
Cosmos 909 Rocket 4.1 01:25:39 66° ESE 01:25:39 66° ESE 01:32:39 10° NE
Cosmos 2218 Rocket 4.0 01:25:53 73° E 01:25:58 73° E 01:32:17 10° N
NOSS 3-2 (C) 3.9 01:19:34 10° NNW 01:27:13 88° ENE 01:28:49 62° SE
Cosmos 1975 Rocket 4.3 01:23:18 10° N 01:26:09 40° N 01:26:09 40° N
Cosmos 2366 rocket 3.9 01:35:10 74° E 01:35:13 74° E 01:41:24 10° N
Cosmos 1867 3.8 01:30:45 10° NNW 01:35:19 63° NW 01:35:19 63° NW
RESURS DK-1 3.9 01:43:06 34° N 01:43:06 34° N 01:45:43 10° NNE
CZ-2C R/B 3.2 01:44:52 82° NE 01:44:52 82° NE 01:50:18 10° N
Meteor 1-27 Rocket 4.5 01:39:48 10° NNW 01:44:38 41° WNW 01:44:38 41° WNW
NOSS 3-4 (A) 4.5 01:45:30 33° W 01:47:27 41° NW 01:53:38 10° NNE
NOSS 3-4 (C) 4.4 01:45:37 34° W 01:47:32 42° NW 01:53:44 10° NNE
NOSS 3-2 (A) 4.0 01:40:34 10° NW 01:48:02 60° WSW 01:48:29 59° SW
Cosmos 1825 4.5 01:51:08 21° NNW 01:51:08 21° NNW 01:52:46 10° NNW
Cosmos 864 Rocket 4.3 01:53:46 82° WSW 01:53:55 83° W 02:00:05 10° N
Meteor 1-14 Rocket 4.2 02:00:40 81° W 02:00:40 81° W 02:06:34 10° N
Cosmos 1727 Rocket 3.8 01:56:00 10° N 02:02:13 88° W 02:02:30 83° SSW
Cosmos 1190 Rocket 4.1 02:02:39 10° NNW 02:07:30 73° NNE 02:07:30 73° NNE
Okean 1 Rocket 4.3 02:11:32 36° ENE 02:11:32 36° ENE 02:15:04 10° NNE
Cosmos 1812 4.4 02:07:31 10° N 02:10:07 32° NE 02:10:07 32° NE
Cosmos 2151 Rocket 4.4 02:12:57 47° NNW 02:12:57 47° NNW 02:16:19 10° N
Cosmos 1844 Rocket 2.8 02:14:45 64° ESE 02:14:45 64° ESE 02:20:18 10° NNE
Cosmos 2056 Rocket 4.1 02:18:12 47° WNW 02:18:12 47° WNW 02:23:08 10° N
Cosmos 407 Rocket 3.5 02:14:16 10° NNW 02:19:17 78° NE 02:19:17 78° NE
Cosmos 2263 Rocket 3.7 02:18:18 24° WNW 02:19:29 25° WNW 02:24:09 10° N
PSLV R/B 4.2 02:19:54 10° NNE 02:23:10 53° NNE 02:23:10 53° NNE
Meteor 1-20 Rocket 4.1 02:25:00 77° SSE 02:25:23 83° E 02:31:11 10° N
Meteor 1-18 Rocket 4.1 02:19:55 10° N 02:25:39 87° W 02:25:56 81° S
SL-27 R/B 4.4 02:26:08 10° NNW 02:28:00 28° NNW 02:28:00 28° NNW
Cosmos 676 Rocket 3.9 02:27:18 10° NNW 02:32:30 77° ENE 02:32:42 76° E
NOSS 2-2 (E) 4.0 02:33:57 58° NE 02:33:57 58° NE 02:37:53 10° NE
Gbstr 26 Del rocket 3.8 02:34:20 43° N 02:34:20 43° N 02:37:28 10° NE
ATLAS 5 CENTAUR R/B 4.0 02:28:35 10° NNW 02:33:54 32° NE 02:39:30 10° ESE
Iridium 4 Rocket 3.6 02:29:17 10° N 02:33:53 66° WNW 02:33:53 66° WNW
CZ-2C R/B 4.3 02:31:45 10° NNW 02:35:24 20° WNW 02:35:56 19° WNW
Cosmos 1844 3.7 02:35:27 68° SE 02:35:52 71° ESE 02:41:36 10° NNE
CZ-4C R/B 4.3 02:31:51 10° WNW 02:35:53 21° W 02:35:53 21° W
Cosmos 1000 Rocket 4.4 02:32:11 10° N 02:38:21 79° E 02:39:41 57° SSE
ATLAS 2A CENTAUR R/B 3.9 02:42:21 34° SSE 02:42:21 34° SSE 02:57:24 10° ESE
Cosmos 2278 Rocket 2.4 02:46:24 53° SE 02:47:10 58° ESE 02:52:45 10° NNE
SL-24 DEB 4.2 02:42:47 10° N 02:47:27 78° E 02:47:27 78° E
GP-B 3.2 02:43:48 10° N 02:48:06 69° ENE 02:48:06 69° ENE
Meteor 1-11 Rocket 4.1 02:48:46 49° SSE 02:50:12 63° E 02:56:06 10° NNE
Cosmos 1809 Rocket 4.3 02:51:05 60° S 02:52:19 89° W 02:58:30 10° N
USA 234 4.1 02:48:21 10° ESE 02:54:35 49° NE 03:00:49 10° NW
Meteor 1-13 Rocket 4.4 02:49:08 10° N 02:54:53 73° E 02:56:39 46° SSE
Cosmos 1954 Rocket 3.8 02:51:26 10° NNW 02:56:38 83° WSW 02:57:03 75° S
Cosmos 1400 Rocket 4.1 02:56:57 31° E 02:57:05 31° E 03:00:36 10° NNE
CENTAUR R/B 3.0 02:50:22 10° NNW 02:58:20 86° WSW 03:05:06 17° SSE
Okean 1 4.3 02:54:56 10° NNW 02:57:44 40° NW 02:57:44 40° NW
Cosmos 1300 Rocket 4.2 02:59:55 45° NW 02:59:55 45° NW 03:03:38 10° N
Cosmos 1605 Rocket 4.3 02:57:15 38° SSE 02:59:27 59° E 03:05:37 10° NNE
COSMOS 2406 3.7 02:54:07 10° NW 02:59:12 44° W 02:59:12 44° W
Cosmos 1821 Rocket 4.0 02:58:55 54° SSW 03:00:27 79° W 03:06:53 10° N
Meteor 2-21 4.4 03:01:18 56° SSW 03:02:34 74° W 03:08:42 10° N
Cosmos 1602 4.0 03:03:13 64° NNE 03:03:13 64° NNE 03:06:33 10° N
Meteor 2-16 Rocket 4.5 03:01:29 47° SSE 03:03:21 74° E 03:09:30 10° N
Cosmos 2123 Rocket 4.1 03:01:08 10° N 03:07:29 73° E 03:10:22 34° SSE
Cosmos 2082 Rocket 4.3 03:03:06 10° N 03:07:47 25° ENE 03:12:25 10° ESE
Cosmos 1461 3.3 03:10:22 59° W 03:10:44 61° WNW 03:15:20 10° NNE
USA 161 3.6 03:10:59 24° ENE 03:10:59 24° ENE 03:13:27 10° NNE
SL-16 R/B 3.8 03:08:41 10° SE 03:14:21 38° ENE 03:20:00 10° N
Cosmos 1023 Rocket 4.3 03:10:14 10° NNW 03:15:21 86° WSW 03:16:32 54° S
NPP 3.7 03:10:33 10° N 03:15:53 66° WNW 03:17:00 52° SW
ERS-2 2.4 03:17:02 10° N 03:20:25 62° NW 03:20:25 62° NW
Cosmos 1892 Rocket 3.9 03:20:39 10° N 03:24:57 59° E 03:26:25 37° SE
ARIANE 5 R/B 3.1 03:21:25 10° NNE 03:26:18 50° E 03:28:22 31° SSE
CZ-2D R/B 3.3 03:21:56 10° NNE 03:27:02 39° E 03:30:13 20° SSE
Cosmos 1356 3.5 03:27:25 79° NE 03:27:25 79° NE 03:30:50 10° N
Meteor 2-4 Rocket 3.7 03:22:32 10° N 03:27:54 71° E 03:30:49 27° SSE
Cosmos 1315 Rocket 3.6 03:27:41 36° SE 03:28:43 45° E 03:32:34 10° NNE
Cosmos 1420 Rocket 4.5 03:29:35 41° WSW 03:30:48 48° WNW 03:35:55 10° N
SL-08 R/B 3.6 03:32:06 47° WSW 03:32:38 50° W 03:37:23 10° NNW
SME Rocket 4.4 03:33:47 10° SE 03:37:10 35° ENE 03:41:07 10° N
CBERS-1 4.5 03:32:37 10° N 03:37:33 47° WNW 03:38:52 38° WSW
Cosmos 1140 Rocket 3.6 03:32:40 10° NNW 03:37:38 51° WSW 03:38:35 45° SW
Cosmos 1833 Rocket 4.2 03:38:10 10° N 03:43:21 37° ENE 03:48:30 10° SE
IRS-1C 4.4 03:38:21 10° N 03:43:32 53° WNW 03:45:19 37° SW
BREEZE-M DEB (TANK) 2.2 03:48:01 47° SE 03:48:01 47° SE 03:50:32 10° ENE
UNKNOWN OBJECT B 4.1 03:44:23 10° NNE 03:48:11 36° E 03:50:28 20° SSE
COSMOS 2487 3.8 03:45:31 10° NW 03:47:45 27° WNW 03:47:45 27° WNW
Cosmos 1975 4.3 03:46:31 17° SE 03:48:58 32° E 03:52:33 10° NNE
Cosmos 1633 3.5 03:54:40 33° W 03:54:42 33° WNW 03:58:01 10° NNW
Cosmos 1536 3.8 03:55:49 30° W 03:56:12 30° WNW 03:59:50 10° NNW
Resurs 1-4 Rocket 2.2 03:51:51 10° NNE 03:57:11 76° ESE 04:00:25 24° S
Cosmos 2100 Rocket 4.1 03:54:18 20° S 03:58:50 76° E 04:05:10 10° N
Cosmos 1025 Rocket 3.8 03:55:33 10° NNW 03:59:23 32° W 03:59:50 32° WSW
ADEOS 4.1 03:54:58 10° N 03:59:54 43° WNW 04:02:00 29° WSW
EO 1 Del DPAF 3.2 04:02:57 23° SSE 04:05:20 89° E 04:09:15 10° NNW
Okean 2 3.5 04:03:57 10° NNW 04:07:58 53° W 04:09:30 33° SSW
Cosmos 1455 Rocket 3.4 04:07:47 32° SW 04:09:27 51° W 04:13:48 10° N
PSLV R/B 3.4 04:09:46 44° SSW 04:10:31 57° SSE 04:13:51 10° ENE
Cosmos 1626 Rocket 3.8 04:06:39 10° N 04:11:02 68° E 04:15:25 10° SSE
OAO 3 Copernicus 4.2 04:12:10 21° W 04:15:27 69° S 04:20:27 10° E
Okean O Rocket 2.6 04:11:48 10° NNE 04:15:56 42° E 04:20:00 10° S
Cosmos 2369 Rocket 4.4 04:12:15 10° SE 04:16:10 19° E 04:20:05 10° NE
ATLAS 5 CENTAUR R/B 2.6 04:12:58 10° NW 04:18:49 48° WSW 04:25:01 10° S
MTI 3.9 04:16:43 16° SSE 04:19:17 79° ENE 04:22:36 10° N
Cosmos 1302 Rocket 4.1 04:17:48 18° S 04:21:41 74° ESE 04:26:55 10° NNE
UNK 3.9 04:24:32 17° S 04:27:58 51° W 04:32:31 10° NNW
Atlas Centaur 2 4.2 04:23:12 16° SSW 04:28:16 29° SSE 04:35:15 10° E
Cosmos 2278 Rocket 3.9 04:28:15 12° W 04:31:39 20° NW 04:35:43 10° N
Timation 2 Rocket 4.4 04:28:30 10° NW 04:33:58 36° WSW 04:39:21 10° S
DNEPR-1 R/B 4.1 04:29:51 10° NNW 04:35:18 71° ENE 04:39:49 10° SE
Timation 1 Rocket 4.4 04:31:26 17° SSW 04:36:09 79° WNW 04:42:12 10° NNE
USA 234 3.5 04:31:22 10° SSE 04:37:33 45° SW 04:43:47 10° WNW
Cosmos 2061 Rocket 4.2 04:33:52 15° SSW 04:39:02 56° W 04:45:20 10° N
IRS-1D 4.4 04:36:03 10° N 04:40:29 32° WNW 04:43:42 16° WSW
BREEZE-M DEB 3.5 04:46:44 24° SW 04:47:58 86° NW 04:50:55 10° NE
CENTAUR R/B 4.4 04:43:21 10° WNW 04:48:13 17° WSW 04:52:05 13° SW
Cosmos 2082 Rocket 2.6 04:46:38 10° NW 04:52:01 44° WSW 04:57:22 10° S
NAVSTAR 52 R/B(PAM-D 2.9 04:51:12 23° W 04:52:13 86° N 04:54:28 10° ENE
CZ-4B R/B 3.3 04:47:20 10° NNE 04:53:03 85° ESE 04:58:41 10° SSW
Cosmos 1174 4.5 04:51:31 10° WNW 04:54:07 21° WSW 04:56:01 13° SSW
Cosmos 1500 3.3 04:50:39 11° SSW 04:54:20 63° W 04:58:13 10° N
Cosmos 2016 Rocket 4.2 04:48:34 10° SSW 04:54:45 58° W 05:00:54 10° N
Cosmos 1743 3.0 04:51:31 10° S 04:55:18 68° E 04:59:07 10° NNE
Cosmos 1515 3.7 04:52:31 10° NNW 04:56:18 62° W 05:00:05 10° S
SL-16 R/B 3.3 04:52:31 10° SSW 04:57:57 31° W 05:03:24 10° NW
Cosmos 1486 Rocket 4.1 04:55:24 10° NNW 05:00:38 57° WSW 05:05:50 10° S
CZ-2D R/B 4.1 04:57:33 10° N 05:01:16 37° WNW 05:04:58 11° SW
USA 129 2.5 04:59:56 14° SSW 05:01:22 29° W 05:03:11 10° NW
BREEZE-M DEB (TANK) 4.2 04:55:10 10° NW 05:01:31 34° NNE 05:04:09 10° E
MOZ.5/SAFIR/RUBIN 5/SL-8 3.8 04:57:03 10° S 05:01:50 83° WSW 05:06:38 10° NNW
ARIANE 5 R/B 4.2 05:01:48 10° NNW 05:05:00 17° WNW 05:08:13 10° WSW
Cosmos 2233 Rocket 4.4 04:58:59 10° S 05:05:10 68° E 05:11:19 10° NNE
CZ-2D R/B 3.4 05:02:25 10° NNW 05:06:52 26° WNW 05:11:18 10° WSW
Cosmos 1346 Rocket 3.4 05:04:14 10° NNW 05:08:00 38° W 05:11:42 10° SSW
Cosmos 1725 Rocket 4.1 05:05:25 10° SSW 05:11:38 65° W 05:17:50 10° N
Cosmos 2098 Rocket 3.0 05:14:38 10° SSW 05:18:13 58° W 05:22:46 10° N
CZ-2C R/B 4.3 05:13:48 10° SSW 05:18:16 40° W 05:22:46 10° NNW
SL-8 R/B 3.9 05:15:17 10° SW 05:20:01 70° SE 05:24:47 10° ENE
Cosmos 2084 3.7 05:16:21 10° SW 05:20:06 47° NW 05:23:49 10° NNE
Cosmos 1066 Rocket 4.3 05:17:26 10° NNW 05:22:42 52° W 05:27:52 10° SSW
Cosmos 1816 Rocket 4.5 05:18:04 10° N 05:24:13 79° W 05:30:24 10° S
Cosmos 1842 4.3 05:20:45 10° N 05:24:38 51° E 05:28:29 10° SSE
Cosmos 1825 Rocket 3.7 05:20:40 10° NNW 05:24:56 54° W 05:29:13 10° S
Cosmos 1758 Rocket 3.7 05:20:51 10° N 05:25:20 87° E 05:29:50 10° S
CZ-3 Stage 3 4.1 04:53:04 10° WSW 05:26:27 56° S 05:32:19 10° ESE
Cosmos 1833 Rocket 3.6 05:22:24 10° NW 05:27:03 27° WSW 05:31:42 10° SSW
USA 229 DEB 3.8 05:21:08 10° NW 05:28:16 79° WSW 05:35:27 10° SSE
USA 229 3.8 05:21:13 10° NW 05:28:21 79° WSW 05:35:33 10° SSE
